Time,TemperatureF,DewpointF,PressureIn,WindDirection,WindDirectionDegrees,WindSpeedMPH,WindSpeedGustMPH,Humidity,HourlyPrecipIn,Conditions,Clouds,dailyrainin,SoftwareType,DateUTC
2013-01-12 00:00:00,73.1,69.3,30.15,SE,136,0.0,0.0,88,0.00,CLR,,0.00,WeatherDisplay:10.37,2013-01-12 05:00:00,
2013-01-12 00:02:00,73.1,69.3,30.15,SE,137,0.0,0.0,88,0.00,CLR,,0.00,WeatherDisplay:10.37,2013-01-12 05:02:00,
2013-01-12 00:03:00,73.1,69.3,30.15,SE,137,0.0,0.0,88,0.00,CLR,,0.00,WeatherDisplay:10.37,2013-01-12 05:03:00,
2013-01-12 00:08:00,73.1,69.3,30.15,SE,137,0.0,0.0,88,0.00,CLR,,0.00,WeatherDisplay:10.37,2013-01-12 05:08:00,
2013-01-12 00:13:00,73.3,69.5,30.14,SE,138,1.0,0.0,88,0.00,CLR,,0.00,WeatherDisplay:10.37,2013-01-12 05:13:00,
2013-01-12 00:18:00,73.4,69.6,30.14,SSE,151,8.1,8.1,88,0.00,CLR,,0.00,WeatherDisplay:10.37,2013-01-12 05:18:00,
2013-01-12 00:23:00,73.5,69.7,30.15,SSE,150,1.2,0.0,88,0.00,CLR,,0.00,WeatherDisplay:10.37,2013-01-12 05:23:00,
2013-01-12 00:28:00,73.5,69.4,30.15,SSE,150,0.0,0.0,87,0.00,CLR,,0.00,WeatherDisplay:10.37,2013-01-12 05:28:00,
2013-01-12 00:33:00,73.5,69.4,30.15,SSE,149,0.0,0.0,87,0.00,CLR,,0.00,WeatherDisplay:10.37,2013-01-12 05:33:00,
2013-01-12 00:38:00,73.5,69.4,30.15,SSE,148,0.0,0.0,87,0.00,CLR,,0.00,WeatherDisplay:10.37,2013-01-12 05:38:00,
2013-01-12 00:43:00,73.5,69.4,30.15,SSE,148,0.0,0.0,87,0.00,CLR,,0.00,WeatherDisplay:10.37,2013-01-12 05:43:00,
2013-01-12 00:48:00,73.5,69.7,30.15,SSE,150,0.0,0.0,88,0.00,CLR,,0.00,WeatherDisplay:10.37,2013-01-12 05:48:00,
2013-01-12 00:53:00,73.4,69.6,30.15,SSE,148,0.0,0.0,88,0.00,CLR,,0.00,WeatherDisplay:10.37,2013-01-12 05:53:00,
2013-01-12 00:58:00,73.3,69.5,30.15,SSE,149,1.2,0.0,88,0.00,CLR,,0.00,WeatherDisplay:10.37,2013-01-12 05:58:00,
2013-01-12 01:03:00,73.1,69.7,30.15,SSE,149,1.2,0.0,89,0.00,CLR,,0.00,WeatherDisplay:10.37,2013-01-12 06:03:00,
2013-01-12 01:08:00,73.1,69.7,30.14,SSE,149,0.0,0.0,89,0.00,CLR,,0.00,WeatherDisplay:10.37,2013-01-12 06:08:00,
2013-01-12 01:13:00,73.1,69.7,30.14,SSE,149,0.0,0.0,89,0.00,CLR,,0.00,WeatherDisplay:10.37,2013-01-12 06:13:00,
2013-01-12 01:18:00,73.2,69.8,30.15,SSE,150,0.0,0.0,89,0.00,CLR,,0.00,WeatherDisplay:10.37,2013-01-12 06:18:00,
2013-01-12 01:23:00,73.2,69.8,30.15,SSE,150,0.0,0.0,89,0.00,CLR,,0.00,WeatherDisplay:10.37,2013-01-12 06:23:00,
2013-01-12 01:28:00,73.2,69.8,30.15,SSE,149,0.0,0.0,89,0.00,CLR,,0.00,WeatherDisplay:10.37,2013-01-12 06:28:00,
2013-01-12 01:33:00,73.2,69.8,30.14,SSE,149,0.0,0.0,89,0.00,CLR,,0.00,WeatherDisplay:10.37,2013-01-12 06:33:00,
2013-01-12 01:38:00,73.1,69.7,30.15,SSE,149,0.0,0.0,89,0.00,CLR,,0.00,WeatherDisplay:10.37,2013-01-12 06:38:00,
2013-01-12 01:43:00,73.0,69.6,30.14,SSE,154,3.0,3.0,89,0.00,CLR,,0.00,WeatherDisplay:10.37,2013-01-12 06:43:00,
2013-01-12 01:48:00,73.0,69.2,30.14,SSE,154,1.2,1.2,88,0.00,CLR,,0.00,WeatherDisplay:10.37,2013-01-12 06:48:00,
2013-01-12 01:53:00,73.1,69.0,30.14,SSE,155,3.0,3.0,87,0.00,CLR,,0.00,WeatherDisplay:10.37,2013-01-12 06:53:00,
2013-01-12 01:58:00,73.3,68.9,30.14,SSE,157,2.0,2.0,86,0.00,CLR,,0.00,WeatherDisplay:10.37,2013-01-12 06:58:00,
2013-01-12 02:03:00,73.5,69.1,30.14,SSE,156,2.3,2.3,86,0.00,CLR,,0.00,WeatherDisplay:10.37,2013-01-12 07:03:00,
2013-01-12 02:08:00,73.6,69.2,30.14,SSE,157,3.5,3.5,86,0.00,CLR,,0.00,WeatherDisplay:10.37,2013-01-12 07:08:00,
2013-01-12 02:13:00,73.6,68.8,30.14,SSE,157,0.0,0.0,85,0.00,CLR,,0.00,WeatherDisplay:10.37,2013-01-12 07:13:00,
2013-01-12 02:18:00,73.5,68.7,30.14,SSE,156,2.3,2.3,85,0.00,CLR,,0.00,WeatherDisplay:10.37,2013-01-12 07:18:00,
2013-01-12 02:23:00,73.4,69.0,30.14,SSE,157,3.5,0.0,86,0.00,CLR,,0.00,WeatherDisplay:10.37,2013-01-12 07:23:00,
2013-01-12 02:28:00,73.3,68.9,30.13,SSE,158,2.0,0.0,86,0.00,CLR,,0.00,WeatherDisplay:10.37,2013-01-12 07:28:00,
2013-01-12 02:33:00,73.3,68.9,30.13,SSE,156,1.2,0.0,86,0.00,CLR,,0.00,WeatherDisplay:10.37,2013-01-12 07:33:00,
2013-01-12 02:38:00,73.1,68.7,30.14,SSE,156,0.0,0.0,86,0.00,CLR,,0.00,WeatherDisplay:10.37,2013-01-12 07:38:00,
2013-01-12 02:43:00,73.0,68.6,30.13,SSE,157,0.0,0.0,86,0.00,CLR,,0.00,WeatherDisplay:10.37,2013-01-12 07:43:00,
2013-01-12 02:48:00,73.0,68.9,30.13,SSE,157,0.0,0.0,87,0.00,CLR,,0.00,WeatherDisplay:10.37,2013-01-12 07:48:00,
2013-01-12 02:53:00,72.8,68.7,30.13,SSE,158,0.0,0.0,87,0.00,CLR,,0.00,WeatherDisplay:10.37,2013-01-12 07:53:00,
2013-01-12 02:58:00,72.6,68.5,30.13,SSE,157,0.0,0.0,87,0.00,CLR,,0.00,WeatherDisplay:10.37,2013-01-12 07:58:00,
2013-01-12 03:03:00,72.4,68.3,30.13,SSE,157,0.0,0.0,87,0.00,CLR,,0.00,WeatherDisplay:10.37,2013-01-12 08:03:00,
2013-01-12 03:08:00,72.2,68.1,30.12,SSE,157,0.0,0.0,87,0.00,CLR,,0.00,WeatherDisplay:10.37,2013-01-12 08:08:00,
2013-01-12 03:13:00,71.9,68.2,30.12,SSE,157,0.0,0.0,88,0.00,CLR,,0.00,WeatherDisplay:10.37,2013-01-12 08:13:00,
2013-01-12 03:18:00,71.6,67.9,30.12,SSE,156,0.0,0.0,88,0.00,CLR,,0.00,WeatherDisplay:10.37,2013-01-12 08:18:00,
2013-01-12 03:23:00,71.3,67.6,30.12,SSE,157,0.0,0.0,88,0.00,CLR,,0.00,WeatherDisplay:10.37,2013-01-12 08:23:00,
2013-01-12 03:28:00,71.3,67.9,30.12,SSE,156,0.0,0.0,89,0.00,CLR,,0.00,WeatherDisplay:10.37,2013-01-12 08:28:00,
2013-01-12 03:33:00,71.3,68.2,30.12,SSE,157,0.0,0.0,90,0.00,CLR,,0.00,WeatherDisplay:10.37,2013-01-12 08:33:00,
2013-01-12 03:38:00,71.3,68.2,30.12,SSE,157,0.0,0.0,90,0.00,CLR,,0.00,WeatherDisplay:10.37,2013-01-12 08:38:00,
2013-01-12 03:43:00,71.3,68.2,30.12,SSE,156,0.0,0.0,90,0.00,CLR,,0.00,WeatherDisplay:10.37,2013-01-12 08:43:00,
2013-01-12 03:48:00,71.3,68.2,30.12,SSE,156,0.0,0.0,90,0.00,CLR,,0.00,WeatherDisplay:10.37,2013-01-12 08:48:00,
2013-01-12 03:54:00,71.3,68.2,30.12,SSE,156,0.0,0.0,90,0.00,CLR,,0.00,WeatherDisplay:10.37,2013-01-12 08:54:00,
2013-01-12 03:59:00,71.3,68.2,30.12,SSE,157,0.0,0.0,90,0.00,CLR,,0.00,WeatherDisplay:10.37,2013-01-12 08:59:00,
2013-01-12 04:04:00,71.3,68.2,30.12,SSE,156,0.0,0.0,90,0.00,CLR,,0.00,WeatherDisplay:10.37,2013-01-12 09:04:00,
2013-01-12 04:09:00,71.3,68.2,30.12,SSE,157,0.0,0.0,90,0.00,CLR,,0.00,WeatherDisplay:10.37,2013-01-12 09:09:00,
2013-01-12 04:14:00,71.3,68.2,30.12,SSE,158,0.0,0.0,90,0.00,CLR,,0.00,WeatherDisplay:10.37,2013-01-12 09:14:00,
2013-01-12 04:19:00,71.3,68.2,30.12,SSE,156,0.0,0.0,90,0.00,CLR,,0.00,WeatherDisplay:10.37,2013-01-12 09:19:00,
2013-01-12 04:24:00,71.2,68.1,30.12,SSE,156,0.0,0.0,90,0.00,CLR,,0.00,WeatherDisplay:10.37,2013-01-12 09:24:00,
2013-01-12 04:29:00,71.1,68.0,30.12,SSE,156,0.0,0.0,90,0.00,CLR,,0.00,WeatherDisplay:10.37,2013-01-12 09:29:00,
2013-01-12 04:34:00,71.1,68.0,30.12,SSE,157,0.0,0.0,90,0.00,CLR,,0.00,WeatherDisplay:10.37,2013-01-12 09:34:00,
2013-01-12 04:39:00,71.0,67.9,30.12,SSE,156,0.0,0.0,90,0.00,CLR,,0.00,WeatherDisplay:10.37,2013-01-12 09:39:00,
2013-01-12 04:44:00,71.0,68.2,30.12,SSE,157,0.0,0.0,91,0.00,CLR,,0.00,WeatherDisplay:10.37,2013-01-12 09:44:00,
2013-01-12 04:49:00,71.0,68.2,30.12,SSE,157,0.0,0.0,91,0.00,CLR,,0.00,WeatherDisplay:10.37,2013-01-12 09:49:00,
2013-01-12 04:54:00,71.0,68.2,30.12,SSE,157,0.0,0.0,91,0.00,CLR,,0.00,WeatherDisplay:10.37,2013-01-12 09:54:00,
2013-01-12 04:59:00,70.9,68.1,30.12,SSE,157,0.0,0.0,91,0.00,CLR,,0.00,WeatherDisplay:10.37,2013-01-12 09:59:00,
2013-01-12 05:04:00,70.9,68.1,30.12,SSE,157,0.0,0.0,91,0.00,CLR,,0.00,WeatherDisplay:10.37,2013-01-12 10:04:00,
2013-01-12 05:09:00,70.8,68.4,30.12,SSE,156,0.0,0.0,92,0.00,CLR,,0.00,WeatherDisplay:10.37,2013-01-12 10:09:00,
2013-01-12 05:14:00,70.9,68.5,30.12,SSE,157,0.0,0.0,92,0.00,CLR,,0.00,WeatherDisplay:10.37,2013-01-12 10:14:00,
2013-01-12 05:19:00,70.9,68.5,30.11,SSE,157,0.0,0.0,92,0.00,CLR,,0.00,WeatherDisplay:10.37,2013-01-12 10:19:00,
2013-01-12 05:24:00,70.9,68.5,30.11,SSE,157,0.0,0.0,92,0.00,CLR,,0.00,WeatherDisplay:10.37,2013-01-12 10:24:00,
2013-01-12 05:29:00,70.9,68.5,30.12,SSE,156,0.0,0.0,92,0.00,CLR,,0.00,WeatherDisplay:10.37,2013-01-12 10:29:00,
2013-01-12 05:34:00,71.0,68.6,30.11,SSE,156,0.0,0.0,92,0.00,CLR,,0.00,WeatherDisplay:10.37,2013-01-12 10:34:00,
2013-01-12 05:39:00,71.0,68.6,30.12,SSE,157,4.6,0.0,92,0.00,CLR,,0.00,WeatherDisplay:10.37,2013-01-12 10:39:00,
2013-01-12 05:44:00,71.2,68.8,30.12,SSE,157,0.0,0.0,92,0.00,CLR,,0.00,WeatherDisplay:10.37,2013-01-12 10:44:00,
2013-01-12 05:49:00,71.3,68.5,30.12,SSE,157,0.0,0.0,91,0.00,CLR,,0.00,WeatherDisplay:10.37,2013-01-12 10:49:00,
2013-01-12 05:54:00,71.3,68.5,30.12,SSE,157,0.0,0.0,91,0.00,CLR,,0.00,WeatherDisplay:10.37,2013-01-12 10:54:00,
2013-01-12 05:59:00,71.3,68.5,30.12,SSE,158,0.0,0.0,91,0.00,CLR,,0.00,WeatherDisplay:10.37,2013-01-12 10:59:00,
2013-01-12 06:04:00,71.2,68.4,30.12,SSE,156,0.0,0.0,91,0.00,CLR,,0.00,WeatherDisplay:10.37,2013-01-12 11:04:00,
2013-01-12 06:09:00,71.0,68.2,30.12,SSE,156,0.0,0.0,91,0.00,CLR,,0.00,WeatherDisplay:10.37,2013-01-12 11:09:00,
2013-01-12 06:14:00,70.8,68.0,30.12,SSE,156,0.0,0.0,91,0.00,CLR,,0.00,WeatherDisplay:10.37,2013-01-12 11:14:00,
2013-01-12 06:19:00,70.6,67.8,30.13,SSE,158,0.0,0.0,91,0.00,CLR,,0.00,WeatherDisplay:10.37,2013-01-12 11:19:00,
2013-01-12 06:24:00,70.4,67.6,30.13,SSE,158,0.0,0.0,91,0.00,CLR,,0.00,WeatherDisplay:10.37,2013-01-12 11:24:00,
2013-01-12 06:29:00,70.2,67.4,30.13,SSE,156,0.0,0.0,91,0.00,CLR,,0.00,WeatherDisplay:10.37,2013-01-12 11:29:00,
2013-01-12 06:34:00,70.0,67.6,30.14,SSE,157,0.0,0.0,92,0.00,CLR,,0.00,WeatherDisplay:10.37,2013-01-12 11:34:00,
2013-01-12 06:39:00,69.8,67.4,30.14,SSE,155,0.0,0.0,92,0.00,CLR,,0.00,WeatherDisplay:10.37,2013-01-12 11:39:00,
2013-01-12 06:44:00,69.7,67.3,30.14,SSE,157,0.0,0.0,92,0.00,CLR,,0.00,WeatherDisplay:10.37,2013-01-12 11:44:00,
2013-01-12 06:49:00,69.6,67.2,30.14,SSE,158,0.0,0.0,92,0.00,CLR,,0.00,WeatherDisplay:10.37,2013-01-12 11:49:00,
2013-01-12 06:54:00,69.5,67.4,30.15,SSE,157,0.0,0.0,93,0.00,CLR,,0.00,WeatherDisplay:10.37,2013-01-12 11:54:00,
2013-01-12 06:59:00,69.4,67.3,30.14,SSE,158,0.0,0.0,93,0.00,CLR,,0.00,WeatherDisplay:10.37,2013-01-12 11:59:00,
2013-01-12 07:04:00,69.4,67.3,30.14,SSE,156,0.0,0.0,93,0.00,CLR,,0.00,WeatherDisplay:10.37,2013-01-12 12:04:00,
2013-01-12 07:09:00,69.4,67.3,30.14,SSE,157,0.0,0.0,93,0.00,CLR,,0.00,WeatherDisplay:10.37,2013-01-12 12:09:00,
2013-01-12 07:14:00,69.3,67.2,30.14,SSE,155,0.0,0.0,93,0.00,CLR,,0.00,WeatherDisplay:10.37,2013-01-12 12:14:00,
2013-01-12 07:19:00,69.2,67.1,30.14,SSE,157,0.0,0.0,93,0.00,CLR,,0.00,WeatherDisplay:10.37,2013-01-12 12:19:00,
2013-01-12 07:24:00,69.2,67.1,30.15,SSE,156,0.0,0.0,93,0.00,CLR,,0.00,WeatherDisplay:10.37,2013-01-12 12:24:00,
2013-01-12 07:29:00,69.1,67.0,30.15,SSE,157,0.0,0.0,93,0.00,CLR,,0.00,WeatherDisplay:10.37,2013-01-12 12:29:00,
2013-01-12 07:34:00,69.0,66.9,30.15,SSE,156,0.0,0.0,93,0.00,CLR,,0.00,WeatherDisplay:10.37,2013-01-12 12:34:00,
2013-01-12 07:39:00,69.0,67.2,30.15,SSE,157,0.0,0.0,94,0.00,CLR,,0.00,WeatherDisplay:10.37,2013-01-12 12:39:00,
2013-01-12 07:44:00,69.0,67.2,30.15,SSE,156,0.0,0.0,94,0.00,CLR,,0.00,WeatherDisplay:10.37,2013-01-12 12:44:00,
2013-01-12 07:49:00,69.1,67.3,30.15,SSE,155,0.0,0.0,94,0.00,CLR,,0.00,WeatherDisplay:10.37,2013-01-12 12:49:00,
2013-01-12 07:54:00,69.2,67.4,30.15,SSE,158,0.0,0.0,94,0.00,CLR,,0.00,WeatherDisplay:10.37,2013-01-12 12:54:00,
2013-01-12 07:59:00,69.3,67.5,30.15,SSE,157,0.0,0.0,94,0.00,CLR,,0.00,WeatherDisplay:10.37,2013-01-12 12:59:00,
2013-01-12 08:04:00,69.5,67.7,30.15,SSE,159,0.0,0.0,94,0.00,CLR,,0.00,WeatherDisplay:10.37,2013-01-12 13:04:00,
2013-01-12 08:09:00,69.7,67.9,30.15,SSE,156,0.0,0.0,94,0.00,CLR,,0.00,WeatherDisplay:10.37,2013-01-12 13:09:00,
2013-01-12 08:14:00,69.9,68.1,30.15,SSE,156,0.0,0.0,94,0.00,CLR,,0.00,WeatherDisplay:10.37,2013-01-12 13:14:00,
2013-01-12 08:19:00,70.1,68.6,30.16,SSE,156,0.0,0.0,95,0.00,CLR,,0.00,WeatherDisplay:10.37,2013-01-12 13:19:00,
2013-01-12 08:24:00,70.4,68.9,30.16,SSE,155,0.0,0.0,95,0.00,CLR,,0.00,WeatherDisplay:10.37,2013-01-12 13:24:00,
2013-01-12 08:29:00,70.6,69.1,30.16,SSE,158,0.0,0.0,95,0.00,CLR,,0.00,WeatherDisplay:10.37,2013-01-12 13:29:00,
2013-01-12 08:34:00,70.9,69.4,30.16,SSE,157,0.0,0.0,95,0.00,CLR,,0.00,WeatherDisplay:10.37,2013-01-12 13:34:00,
2013-01-12 08:39:00,71.2,69.7,30.16,SSE,157,0.0,0.0,95,0.00,CLR,,0.00,WeatherDisplay:10.37,2013-01-12 13:39:00,
2013-01-12 08:44:00,71.3,69.5,30.16,SSE,157,0.0,0.0,94,0.00,CLR,,0.00,WeatherDisplay:10.37,2013-01-12 13:44:00,
2013-01-12 08:49:00,71.4,69.6,30.16,SSE,157,0.0,0.0,94,0.00,CLR,,0.00,WeatherDisplay:10.37,2013-01-12 13:49:00,
2013-01-12 08:54:00,71.6,69.8,30.16,SSE,157,0.0,0.0,94,0.00,CLR,,0.00,WeatherDisplay:10.37,2013-01-12 13:54:00,
2013-01-12 08:59:00,71.9,70.1,30.16,SSE,155,0.0,0.0,94,0.00,CLR,,0.00,WeatherDisplay:10.37,2013-01-12 13:59:00,
2013-01-12 09:04:00,72.3,70.5,30.16,SSE,159,0.0,0.0,94,0.00,CLR,,0.00,WeatherDisplay:10.37,2013-01-12 14:04:00,
2013-01-12 09:09:00,73.1,71.3,30.17,SSE,157,1.2,0.0,94,0.00,CLR,,0.00,WeatherDisplay:10.37,2013-01-12 14:09:00,
2013-01-12 09:14:00,73.7,71.5,30.17,SSE,158,0.0,0.0,93,0.00,CLR,,0.00,WeatherDisplay:10.37,2013-01-12 14:14:00,
2013-01-12 09:19:00,74.1,71.6,30.17,SSE,156,0.0,0.0,92,0.00,CLR,,0.00,WeatherDisplay:10.37,2013-01-12 14:19:00,
2013-01-12 09:24:00,75.2,71.1,30.17,SSE,148,6.9,6.9,87,0.00,CLR,,0.00,WeatherDisplay:10.37,2013-01-12 14:24:00,
2013-01-12 09:29:00,75.6,70.4,30.17,South,179,6.9,6.9,84,0.00,CLR,,0.00,WeatherDisplay:10.37,2013-01-12 14:29:00,
2013-01-12 09:34:00,75.5,70.0,30.17,South,176,1.2,1.2,83,0.00,CLR,,0.00,WeatherDisplay:10.37,2013-01-12 14:34:00,
2013-01-12 09:39:00,75.3,69.4,30.17,South,178,3.5,0.0,82,0.00,CLR,,0.00,WeatherDisplay:10.37,2013-01-12 14:39:00,
2013-01-12 09:44:00,75.3,70.1,30.17,South,178,1.2,0.0,84,0.00,CLR,,0.00,WeatherDisplay:10.37,2013-01-12 14:44:00,
2013-01-12 09:49:00,75.8,70.3,30.17,East,97,4.6,4.6,83,0.00,CLR,,0.00,WeatherDisplay:10.37,2013-01-12 14:49:00,
2013-01-12 09:55:00,76.9,70.3,30.17,SE,130,12.0,12.0,80,0.00,CLR,,0.00,WeatherDisplay:10.37,2013-01-12 14:55:00,
2013-01-12 10:00:00,77.0,69.6,30.17,SSE,167,5.0,5.0,78,0.00,CLR,,0.00,WeatherDisplay:10.37,2013-01-12 15:00:00,
2013-01-12 10:05:00,77.4,70.0,30.17,SSE,161,5.0,5.0,78,0.00,CLR,,0.00,WeatherDisplay:10.37,2013-01-12 15:05:00,
2013-01-12 10:10:00,77.5,70.5,30.17,SSE,162,3.5,3.5,79,0.00,CLR,,0.00,WeatherDisplay:10.37,2013-01-12 15:10:00,
2013-01-12 10:15:00,77.8,70.8,30.17,South,182,3.5,3.5,79,0.00,CLR,,0.00,WeatherDisplay:10.37,2013-01-12 15:15:00,
2013-01-12 10:20:00,78.7,70.1,30.17,ESE,115,11.5,11.5,75,0.00,CLR,,0.00,WeatherDisplay:10.37,2013-01-12 15:20:00,
2013-01-12 10:25:00,79.0,69.6,30.17,SSE,150,9.0,9.0,73,0.00,CLR,,0.00,WeatherDisplay:10.37,2013-01-12 15:25:00,
2013-01-12 10:30:00,79.6,70.2,30.17,South,183,6.0,6.0,73,0.00,CLR,,0.00,WeatherDisplay:10.37,2013-01-12 15:30:00,
2013-01-12 10:35:00,80.2,70.4,30.17,SSE,166,4.6,4.6,72,0.00,CLR,,0.00,WeatherDisplay:10.37,2013-01-12 15:35:00,
2013-01-12 10:40:00,80.3,69.6,30.16,South,169,1.2,1.2,70,0.00,CLR,,0.00,WeatherDisplay:10.37,2013-01-12 15:40:00,
2013-01-12 10:45:00,80.0,69.3,30.16,SSE,161,13.0,13.0,70,0.00,CLR,,0.00,WeatherDisplay:10.37,2013-01-12 15:45:00,
2013-01-12 10:50:00,79.7,69.9,30.16,ENE,78,3.5,3.5,72,0.00,CLR,,0.00,WeatherDisplay:10.37,2013-01-12 15:50:00,
2013-01-12 10:55:00,79.4,69.2,30.16,East,87,9.2,9.2,71,0.00,CLR,,0.00,WeatherDisplay:10.37,2013-01-12 15:55:00,
2013-01-12 11:00:00,79.2,69.0,30.16,SE,145,4.0,4.0,71,0.00,CLR,,0.00,WeatherDisplay:10.37,2013-01-12 16:00:00,
2013-01-12 11:05:00,79.5,69.7,30.15,SSE,151,9.0,9.0,72,0.00,CLR,,0.00,WeatherDisplay:10.37,2013-01-12 16:05:00,
2013-01-12 11:10:00,79.6,69.8,30.15,SSE,163,9.2,9.2,72,0.00,CLR,,0.00,WeatherDisplay:10.37,2013-01-12 16:10:00,
2013-01-12 11:15:00,80.2,70.4,30.15,SSE,149,11.5,11.5,72,0.00,CLR,,0.00,WeatherDisplay:10.37,2013-01-12 16:15:00,
2013-01-12 11:20:00,79.8,70.0,30.15,SSE,163,5.0,5.0,72,0.00,CLR,,0.00,WeatherDisplay:10.37,2013-01-12 16:20:00,
2013-01-12 11:25:00,79.1,69.3,30.14,SSE,148,5.8,5.8,72,0.00,CLR,,0.00,WeatherDisplay:10.37,2013-01-12 16:25:00,
2013-01-12 11:30:00,79.0,70.0,30.14,SE,144,5.0,5.0,74,0.00,CLR,,0.00,WeatherDisplay:10.37,2013-01-12 16:30:00,
2013-01-12 11:35:00,78.7,69.3,30.14,SE,146,11.5,11.5,73,0.00,CLR,,0.00,WeatherDisplay:10.37,2013-01-12 16:35:00,
2013-01-12 11:40:00,78.4,69.4,30.14,SSE,150,3.5,3.5,74,0.00,CLR,,0.00,WeatherDisplay:10.37,2013-01-12 16:40:00,
2013-01-12 11:52:00,78.0,69.4,30.13,NE,49,6.0,6.0,75,0.00,CLR,,0.00,WeatherDisplay:10.37,2013-01-12 16:52:00,
2013-01-12 11:57:00,77.7,69.1,30.13,SE,142,4.6,4.6,75,0.00,CLR,,0.00,WeatherDisplay:10.37,2013-01-12 16:57:00,
2013-01-12 12:02:00,77.6,69.0,30.13,ENE,66,2.3,2.3,75,0.00,CLR,,0.00,WeatherDisplay:10.37,2013-01-12 17:02:00,
2013-01-12 12:07:00,77.8,69.2,30.12,ENE,65,3.5,3.5,75,0.00,CLR,,0.00,WeatherDisplay:10.37,2013-01-12 17:07:00,
2013-01-12 12:22:00,78.4,69.8,30.12,SE,146,6.9,6.9,75,0.00,CLR,,0.00,WeatherDisplay:10.37,2013-01-12 17:22:00,
2013-01-12 12:27:00,78.5,69.1,30.11,NE,52,2.3,2.3,73,0.00,CLR,,0.00,WeatherDisplay:10.37,2013-01-12 17:27:00,
2013-01-12 12:32:00,78.5,69.1,30.12,ENE,71,3.0,3.0,73,0.00,CLR,,0.00,WeatherDisplay:10.37,2013-01-12 17:32:00,
2013-01-12 12:37:00,78.2,69.2,30.12,SE,146,5.0,5.0,74,0.00,CLR,,0.00,WeatherDisplay:10.37,2013-01-12 17:37:00,
2013-01-12 12:42:00,77.8,68.8,30.12,SE,146,3.5,3.5,74,0.00,CLR,,0.00,WeatherDisplay:10.37,2013-01-12 17:42:00,
2013-01-12 12:47:00,77.6,69.0,30.11,SSE,157,4.6,4.6,75,0.00,CLR,,0.00,WeatherDisplay:10.37,2013-01-12 17:47:00,
2013-01-12 12:52:00,77.6,68.7,30.11,East,95,3.5,3.5,74,0.00,CLR,,0.00,WeatherDisplay:10.37,2013-01-12 17:52:00,
2013-01-12 12:57:00,77.8,68.8,30.11,ENE,68,3.5,3.5,74,0.00,CLR,,0.00,WeatherDisplay:10.37,2013-01-12 17:57:00,
2013-01-12 13:02:00,78.1,68.7,30.11,East,99,3.5,3.5,73,0.00,CLR,,0.00,WeatherDisplay:10.37,2013-01-12 18:02:00,
2013-01-12 13:07:00,78.8,69.0,30.10,SSE,164,8.0,8.0,72,0.00,CLR,,0.00,WeatherDisplay:10.37,2013-01-12 18:07:00,
2013-01-12 13:12:00,79.8,69.1,30.10,ENE,59,3.5,3.5,70,0.00,CLR,,0.00,WeatherDisplay:10.37,2013-01-12 18:12:00,
2013-01-12 13:17:00,81.0,69.4,30.10,ENE,77,2.3,2.3,68,0.00,CLR,,0.00,WeatherDisplay:10.37,2013-01-12 18:17:00,
2013-01-12 13:22:00,82.1,69.2,30.10,NE,45,3.5,3.5,65,0.00,CLR,,0.00,WeatherDisplay:10.37,2013-01-12 18:22:00,
2013-01-12 13:27:00,82.4,69.9,30.10,NE,36,4.6,4.6,66,0.00,CLR,,0.00,WeatherDisplay:10.37,2013-01-12 18:27:00,
2013-01-12 13:32:00,83.2,70.2,30.10,NE,53,4.0,4.0,65,0.00,CLR,,0.00,WeatherDisplay:10.37,2013-01-12 18:32:00,
2013-01-12 13:37:00,83.2,68.8,30.10,NE,49,3.5,3.5,62,0.00,CLR,,0.00,WeatherDisplay:10.37,2013-01-12 18:37:00,
2013-01-12 13:42:00,81.9,68.5,30.09,ENE,63,3.5,3.5,64,0.00,CLR,,0.00,WeatherDisplay:10.37,2013-01-12 18:42:00,
2013-01-12 13:47:00,81.2,69.2,30.09,SE,146,3.5,3.5,67,0.00,CLR,,0.00,WeatherDisplay:10.37,2013-01-12 18:47:00,
2013-01-12 13:52:00,81.7,68.8,30.09,NE,56,11.5,11.5,65,0.00,CLR,,0.00,WeatherDisplay:10.37,2013-01-12 18:52:00,
2013-01-12 13:57:00,82.5,69.1,30.09,ESE,102,3.5,3.5,64,0.00,CLR,,0.00,WeatherDisplay:10.37,2013-01-12 18:57:00,
2013-01-12 14:02:00,82.0,68.2,30.09,SSE,155,5.0,5.0,63,0.00,CLR,,0.00,WeatherDisplay:10.37,2013-01-12 19:02:00,
2013-01-12 14:07:00,81.3,68.0,30.09,SSE,166,5.8,5.8,64,0.00,CLR,,0.00,WeatherDisplay:10.37,2013-01-12 19:07:00,
2013-01-12 14:12:00,81.4,68.9,30.09,SSE,163,11.0,11.0,66,0.00,CLR,,0.00,WeatherDisplay:10.37,2013-01-12 19:12:00,
2013-01-12 14:17:00,81.7,68.8,30.08,SSE,149,8.0,8.0,65,0.00,CLR,,0.00,WeatherDisplay:10.37,2013-01-12 19:17:00,
2013-01-12 14:22:00,81.9,67.6,30.08,SE,137,7.0,7.0,62,0.00,CLR,,0.00,WeatherDisplay:10.37,2013-01-12 19:22:00,
2013-01-12 14:27:00,80.7,68.3,30.08,ENE,63,4.0,4.0,66,0.00,CLR,,0.00,WeatherDisplay:10.37,2013-01-12 19:27:00,
2013-01-12 14:32:00,80.2,67.8,30.08,SSE,155,5.8,5.8,66,0.00,CLR,,0.00,WeatherDisplay:10.37,2013-01-12 19:32:00,
2013-01-12 14:37:00,81.1,69.1,30.08,SE,130,3.5,3.5,67,0.00,CLR,,0.00,WeatherDisplay:10.37,2013-01-12 19:37:00,
2013-01-12 14:42:00,81.9,68.5,30.08,SE,133,6.9,6.9,64,0.00,CLR,,0.00,WeatherDisplay:10.37,2013-01-12 19:42:00,
2013-01-12 14:47:00,82.1,68.7,30.08,SSE,157,4.6,4.6,64,0.00,CLR,,0.00,WeatherDisplay:10.37,2013-01-12 19:47:00,
2013-01-12 14:52:00,82.2,68.8,30.08,ENE,60,5.0,5.0,64,0.00,CLR,,0.00,WeatherDisplay:10.37,2013-01-12 19:52:00,
2013-01-12 14:57:00,81.9,68.5,30.08,NE,54,4.6,4.6,64,0.00,CLR,,0.00,WeatherDisplay:10.37,2013-01-12 19:57:00,
2013-01-12 15:02:00,81.0,67.7,30.08,SSE,150,5.8,5.8,64,0.00,CLR,,0.00,WeatherDisplay:10.37,2013-01-12 20:02:00,
2013-01-12 15:07:00,80.8,68.4,30.08,SE,142,7.0,7.0,66,0.00,CLR,,0.00,WeatherDisplay:10.37,2013-01-12 20:07:00,
2013-01-12 15:12:00,80.9,68.5,30.08,ESE,102,9.2,9.2,66,0.00,CLR,,0.00,WeatherDisplay:10.37,2013-01-12 20:12:00,
2013-01-12 15:17:00,80.4,67.1,30.08,SE,139,3.5,3.5,64,0.00,CLR,,0.00,WeatherDisplay:10.37,2013-01-12 20:17:00,
2013-01-12 15:22:00,80.1,68.2,30.08,ESE,122,1.2,0.0,67,0.00,CLR,,0.00,WeatherDisplay:10.37,2013-01-12 20:22:00,
2013-01-12 15:27:00,80.2,68.7,30.09,NE,51,3.5,3.5,68,0.00,CLR,,0.00,WeatherDisplay:10.37,2013-01-12 20:27:00,
2013-01-12 15:32:00,80.6,68.2,30.09,SE,131,3.5,3.5,66,0.00,CLR,,0.00,WeatherDisplay:10.37,2013-01-12 20:32:00,
2013-01-12 15:37:00,80.4,68.4,30.09,East,100,3.0,3.0,67,0.00,CLR,,0.00,WeatherDisplay:10.37,2013-01-12 20:37:00,
2013-01-12 15:42:00,79.7,67.8,30.08,SSE,150,6.9,6.9,67,0.00,CLR,,0.00,WeatherDisplay:10.37,2013-01-12 20:42:00,
2013-01-12 15:47:00,79.0,68.0,30.09,SSE,150,4.0,4.0,69,0.00,CLR,,0.00,WeatherDisplay:10.37,2013-01-12 20:47:00,
2013-01-12 15:52:00,79.5,68.9,30.09,NE,56,3.5,3.5,70,0.00,CLR,,0.00,WeatherDisplay:10.37,2013-01-12 20:52:00,
2013-01-12 15:57:00,80.2,68.7,30.09,ENE,78,2.3,2.3,68,0.00,CLR,,0.00,WeatherDisplay:10.37,2013-01-12 20:57:00,
2013-01-12 16:02:00,80.1,68.6,30.09,ESE,108,4.0,4.0,68,0.00,CLR,,0.00,WeatherDisplay:10.37,2013-01-12 21:02:00,
2013-01-12 16:07:00,79.4,68.3,30.09,ESE,107,2.3,2.3,69,0.00,CLR,,0.00,WeatherDisplay:10.37,2013-01-12 21:07:00,
2013-01-12 16:12:00,78.5,67.5,30.09,ENE,77,3.5,3.5,69,0.00,CLR,,0.00,WeatherDisplay:10.37,2013-01-12 21:12:00,
2013-01-12 16:17:00,77.9,67.3,30.09,ESE,113,1.2,1.2,70,0.00,CLR,,0.00,WeatherDisplay:10.37,2013-01-12 21:17:00,
2013-01-12 16:22:00,77.7,67.1,30.09,ESE,108,2.3,0.0,70,0.00,CLR,,0.00,WeatherDisplay:10.37,2013-01-12 21:22:00,
2013-01-12 16:27:00,78.0,67.4,30.09,SSE,157,4.6,4.6,70,0.00,CLR,,0.00,WeatherDisplay:10.37,2013-01-12 21:27:00,
2013-01-12 16:32:00,78.2,68.0,30.09,SSE,162,3.5,3.5,71,0.00,CLR,,0.00,WeatherDisplay:10.37,2013-01-12 21:32:00,
2013-01-12 16:37:00,78.7,67.7,30.09,SSE,157,4.0,4.0,69,0.00,CLR,,0.00,WeatherDisplay:10.37,2013-01-12 21:37:00,
2013-01-12 16:42:00,78.7,67.2,30.09,SSE,153,4.6,4.6,68,0.00,CLR,,0.00,WeatherDisplay:10.37,2013-01-12 21:42:00,
2013-01-12 16:47:00,78.7,67.7,30.09,SE,130,2.3,2.3,69,0.00,CLR,,0.00,WeatherDisplay:10.37,2013-01-12 21:47:00,
2013-01-12 16:52:00,78.5,67.9,30.09,SE,144,1.2,1.2,70,0.00,CLR,,0.00,WeatherDisplay:10.37,2013-01-12 21:52:00,
2013-01-12 16:57:00,78.7,67.7,30.09,ENE,59,0.0,0.0,69,0.00,CLR,,0.00,WeatherDisplay:10.37,2013-01-12 21:57:00,
2013-01-12 17:02:00,78.0,67.0,30.09,East,94,0.0,0.0,69,0.00,CLR,,0.00,WeatherDisplay:10.37,2013-01-12 22:02:00,
2013-01-12 17:07:00,77.5,67.4,30.09,East,92,0.0,0.0,71,0.00,CLR,,0.00,WeatherDisplay:10.37,2013-01-12 22:07:00,
2013-01-12 17:12:00,77.1,67.4,30.09,East,94,1.2,0.0,72,0.00,CLR,,0.00,WeatherDisplay:10.37,2013-01-12 22:12:00,
2013-01-12 17:17:00,76.7,67.4,30.09,East,95,3.5,3.5,73,0.00,CLR,,0.00,WeatherDisplay:10.37,2013-01-12 22:17:00,
2013-01-12 17:22:00,76.5,67.6,30.09,ESE,123,3.5,3.5,74,0.00,CLR,,0.00,WeatherDisplay:10.37,2013-01-12 22:22:00,
2013-01-12 17:28:00,76.3,67.8,30.09,ESE,121,1.2,0.0,75,0.00,CLR,,0.00,WeatherDisplay:10.37,2013-01-12 22:28:00,
2013-01-12 17:33:00,76.1,67.2,30.10,ESE,119,1.2,0.0,74,0.00,CLR,,0.00,WeatherDisplay:10.37,2013-01-12 22:33:00,
2013-01-12 17:38:00,76.0,67.1,30.10,ESE,120,0.0,0.0,74,0.00,CLR,,0.00,WeatherDisplay:10.37,2013-01-12 22:38:00,
2013-01-12 17:43:00,75.7,67.2,30.10,ESE,119,1.2,0.0,75,0.00,CLR,,0.00,WeatherDisplay:10.37,2013-01-12 22:43:00,
2013-01-12 17:48:00,75.5,67.0,30.10,ESE,121,0.0,0.0,75,0.00,CLR,,0.00,WeatherDisplay:10.37,2013-01-12 22:48:00,
2013-01-12 17:53:00,75.3,66.8,30.10,ESE,119,0.0,0.0,75,0.00,CLR,,0.00,WeatherDisplay:10.37,2013-01-12 22:53:00,
2013-01-12 17:58:00,75.1,66.6,30.10,ESE,118,0.0,0.0,75,0.00,CLR,,0.00,WeatherDisplay:10.37,2013-01-12 22:58:00,
2013-01-12 18:03:00,75.0,66.5,30.10,ESE,118,0.0,0.0,75,0.00,CLR,,0.00,WeatherDisplay:10.37,2013-01-12 23:03:00,
2013-01-12 18:08:00,74.8,66.7,30.10,ESE,119,0.0,0.0,76,0.00,CLR,,0.00,WeatherDisplay:10.37,2013-01-12 23:08:00,
2013-01-12 18:13:00,74.6,66.5,30.11,ESE,118,0.0,0.0,76,0.00,CLR,,0.00,WeatherDisplay:10.37,2013-01-12 23:13:00,
2013-01-12 18:18:00,74.4,66.3,30.10,ESE,118,0.0,0.0,76,0.00,CLR,,0.00,WeatherDisplay:10.37,2013-01-12 23:18:00,
2013-01-12 18:23:00,74.2,66.1,30.10,ESE,118,0.0,0.0,76,0.00,CLR,,0.00,WeatherDisplay:10.37,2013-01-12 23:23:00,
2013-01-12 18:28:00,74.1,66.4,30.10,ESE,119,0.0,0.0,77,0.00,CLR,,0.00,WeatherDisplay:10.37,2013-01-12 23:28:00,
2013-01-12 18:33:00,73.9,66.2,30.11,ESE,119,0.0,0.0,77,0.00,CLR,,0.00,WeatherDisplay:10.37,2013-01-12 23:33:00,
2013-01-12 18:38:00,73.7,66.0,30.11,ESE,118,0.0,0.0,77,0.00,CLR,,0.00,WeatherDisplay:10.37,2013-01-12 23:38:00,
2013-01-12 18:53:00,73.0,65.7,30.11,ESE,117,0.0,0.0,78,0.00,CLR,,0.00,WeatherDisplay:10.37,2013-01-12 23:53:00,
2013-01-12 18:58:00,72.8,65.9,30.11,ESE,119,0.0,0.0,79,0.00,CLR,,0.00,WeatherDisplay:10.37,2013-01-12 23:58:00,
2013-01-12 19:03:00,72.5,66.0,30.11,ESE,117,0.0,0.0,80,0.00,CLR,,0.00,WeatherDisplay:10.37,2013-01-13 00:03:00,
2013-01-12 19:08:00,72.1,65.9,30.11,ESE,118,0.0,0.0,81,0.00,CLR,,0.00,WeatherDisplay:10.37,2013-01-13 00:08:00,
2013-01-12 19:13:00,71.8,65.7,30.12,ESE,118,0.0,0.0,81,0.00,CLR,,0.00,WeatherDisplay:10.37,2013-01-13 00:13:00,
2013-01-12 19:18:00,71.5,65.7,30.11,ESE,118,0.0,0.0,82,0.00,CLR,,0.00,WeatherDisplay:10.37,2013-01-13 00:18:00,
2013-01-12 19:23:00,71.2,65.8,30.12,ESE,119,0.0,0.0,83,0.00,CLR,,0.00,WeatherDisplay:10.37,2013-01-13 00:23:00,
2013-01-12 19:28:00,70.8,65.4,30.12,ESE,118,0.0,0.0,83,0.00,CLR,,0.00,WeatherDisplay:10.37,2013-01-13 00:28:00,
2013-01-12 19:33:00,70.5,65.4,30.12,ESE,119,0.0,0.0,84,0.00,CLR,,0.00,WeatherDisplay:10.37,2013-01-13 00:33:00,
2013-01-12 19:38:00,70.2,65.1,30.12,ESE,118,0.0,0.0,84,0.00,CLR,,0.00,WeatherDisplay:10.37,2013-01-13 00:38:00,
2013-01-12 19:43:00,69.9,65.2,30.11,ESE,118,0.0,0.0,85,0.00,CLR,,0.00,WeatherDisplay:10.37,2013-01-13 00:43:00,
2013-01-12 19:48:00,69.6,65.2,30.11,ESE,119,0.0,0.0,86,0.00,CLR,,0.00,WeatherDisplay:10.37,2013-01-13 00:48:00,
2013-01-12 19:53:00,69.3,64.9,30.11,ESE,118,0.0,0.0,86,0.00,CLR,,0.00,WeatherDisplay:10.37,2013-01-13 00:53:00,
2013-01-12 19:58:00,69.0,65.0,30.12,ESE,118,0.0,0.0,87,0.00,CLR,,0.00,WeatherDisplay:10.37,2013-01-13 00:58:00,
2013-01-12 20:03:00,68.8,65.1,30.12,ESE,117,0.0,0.0,88,0.00,CLR,,0.00,WeatherDisplay:10.37,2013-01-13 01:03:00,
2013-01-12 20:08:00,68.6,64.9,30.12,ESE,118,0.0,0.0,88,0.00,CLR,,0.00,WeatherDisplay:10.37,2013-01-13 01:08:00,
2013-01-12 20:13:00,68.3,64.6,30.12,ESE,118,0.0,0.0,88,0.00,CLR,,0.00,WeatherDisplay:10.37,2013-01-13 01:13:00,
2013-01-12 20:18:00,68.1,64.7,30.12,ESE,119,0.0,0.0,89,0.00,CLR,,0.00,WeatherDisplay:10.37,2013-01-13 01:18:00,
2013-01-12 20:23:00,67.9,64.5,30.12,ESE,118,0.0,0.0,89,0.00,CLR,,0.00,WeatherDisplay:10.37,2013-01-13 01:23:00,
2013-01-12 20:28:00,67.7,64.3,30.12,ESE,118,0.0,0.0,89,0.00,CLR,,0.00,WeatherDisplay:10.37,2013-01-13 01:28:00,
2013-01-12 20:33:00,67.5,64.1,30.12,ESE,120,0.0,0.0,89,0.00,CLR,,0.00,WeatherDisplay:10.37,2013-01-13 01:33:00,
2013-01-12 20:38:00,67.3,63.9,30.12,ESE,119,0.0,0.0,89,0.00,CLR,,0.00,WeatherDisplay:10.37,2013-01-13 01:38:00,
2013-01-12 20:43:00,67.2,64.2,30.12,ESE,117,0.0,0.0,90,0.00,CLR,,0.00,WeatherDisplay:10.37,2013-01-13 01:43:00,
2013-01-12 20:48:00,67.0,64.0,30.12,ESE,119,0.0,0.0,90,0.00,CLR,,0.00,WeatherDisplay:10.37,2013-01-13 01:48:00,
2013-01-12 20:53:00,66.8,63.8,30.12,ESE,119,0.0,0.0,90,0.00,CLR,,0.00,WeatherDisplay:10.37,2013-01-13 01:53:00,
2013-01-12 20:58:00,66.7,64.0,30.12,ESE,119,0.0,0.0,91,0.00,CLR,,0.00,WeatherDisplay:10.37,2013-01-13 01:58:00,
2013-01-12 21:03:00,66.5,63.8,30.12,ESE,118,0.0,0.0,91,0.00,CLR,,0.00,WeatherDisplay:10.37,2013-01-13 02:03:00,
2013-01-12 21:08:00,66.4,63.7,30.12,ESE,119,0.0,0.0,91,0.00,CLR,,0.00,WeatherDisplay:10.37,2013-01-13 02:08:00,
2013-01-12 21:13:00,66.2,63.5,30.12,ESE,119,0.0,0.0,91,0.00,CLR,,0.00,WeatherDisplay:10.37,2013-01-13 02:13:00,
2013-01-12 21:18:00,66.1,63.4,30.12,ESE,119,0.0,0.0,91,0.00,CLR,,0.00,WeatherDisplay:10.37,2013-01-13 02:18:00,
2013-01-12 21:23:00,66.0,63.6,30.12,ESE,119,0.0,0.0,92,0.00,CLR,,0.00,WeatherDisplay:10.37,2013-01-13 02:23:00,
2013-01-12 21:28:00,65.8,63.4,30.11,ESE,119,0.0,0.0,92,0.00,CLR,,0.00,WeatherDisplay:10.37,2013-01-13 02:28:00,
2013-01-12 21:33:00,65.8,63.4,30.11,ESE,117,0.0,0.0,92,0.00,CLR,,0.00,WeatherDisplay:10.37,2013-01-13 02:33:00,
2013-01-12 21:38:00,65.6,63.2,30.11,ESE,119,0.0,0.0,92,0.00,CLR,,0.00,WeatherDisplay:10.37,2013-01-13 02:38:00,
2013-01-12 21:43:00,65.5,63.1,30.11,ESE,119,0.0,0.0,92,0.00,CLR,,0.00,WeatherDisplay:10.37,2013-01-13 02:43:00,
2013-01-12 21:48:00,65.4,63.0,30.11,ESE,117,0.0,0.0,92,0.00,CLR,,0.00,WeatherDisplay:10.37,2013-01-13 02:48:00,
2013-01-12 21:53:00,65.3,63.2,30.11,ESE,119,0.0,0.0,93,0.00,CLR,,0.00,WeatherDisplay:10.37,2013-01-13 02:53:00,
2013-01-12 21:58:00,65.2,63.1,30.11,ESE,118,0.0,0.0,93,0.00,CLR,,0.00,WeatherDisplay:10.37,2013-01-13 02:58:00,
2013-01-12 22:03:00,65.2,63.1,30.10,ESE,118,0.0,0.0,93,0.00,CLR,,0.00,WeatherDisplay:10.37,2013-01-13 03:03:00,
2013-01-12 22:08:00,65.1,63.0,30.11,ESE,118,0.0,0.0,93,0.00,CLR,,0.00,WeatherDisplay:10.37,2013-01-13 03:08:00,
2013-01-12 22:13:00,65.0,62.9,30.11,ESE,118,0.0,0.0,93,0.00,CLR,,0.00,WeatherDisplay:10.37,2013-01-13 03:13:00,
2013-01-12 22:18:00,64.9,62.8,30.11,ESE,119,0.0,0.0,93,0.00,CLR,,0.00,WeatherDisplay:10.37,2013-01-13 03:18:00,
2013-01-12 22:23:00,64.8,62.7,30.10,ESE,118,0.0,0.0,93,0.00,CLR,,0.00,WeatherDisplay:10.37,2013-01-13 03:23:00,
2013-01-12 22:28:00,64.7,62.6,30.10,ESE,118,0.0,0.0,93,0.00,CLR,,0.00,WeatherDisplay:10.37,2013-01-13 03:28:00,
2013-01-12 22:33:00,64.5,62.4,30.10,ESE,117,0.0,0.0,93,0.00,CLR,,0.00,WeatherDisplay:10.37,2013-01-13 03:33:00,
2013-01-12 22:38:00,64.4,62.3,30.10,ESE,119,0.0,0.0,93,0.00,CLR,,0.00,WeatherDisplay:10.37,2013-01-13 03:38:00,
2013-01-12 22:43:00,64.3,62.2,30.10,ESE,118,0.0,0.0,93,0.00,CLR,,0.00,WeatherDisplay:10.37,2013-01-13 03:43:00,
2013-01-12 22:48:00,64.2,62.4,30.10,ESE,118,0.0,0.0,94,0.00,CLR,,0.00,WeatherDisplay:10.37,2013-01-13 03:48:00,
2013-01-12 22:53:00,64.1,62.3,30.10,ESE,117,0.0,0.0,94,0.00,CLR,,0.00,WeatherDisplay:10.37,2013-01-13 03:53:00,
2013-01-12 22:58:00,64.1,62.3,30.10,ESE,119,0.0,0.0,94,0.00,CLR,,0.00,WeatherDisplay:10.37,2013-01-13 03:58:00,
2013-01-12 23:03:00,64.0,62.2,30.10,ESE,117,0.0,0.0,94,0.00,CLR,,0.00,WeatherDisplay:10.37,2013-01-13 04:03:00,
2013-01-12 23:08:00,63.9,62.1,30.10,ESE,119,0.0,0.0,94,0.00,CLR,,0.00,WeatherDisplay:10.37,2013-01-13 04:08:00,
2013-01-12 23:13:00,63.9,62.1,30.10,ESE,119,0.0,0.0,94,0.00,CLR,,0.00,WeatherDisplay:10.37,2013-01-13 04:13:00,
2013-01-12 23:18:00,63.8,62.0,30.09,ESE,118,0.0,0.0,94,0.00,CLR,,0.00,WeatherDisplay:10.37,2013-01-13 04:18:00,
2013-01-12 23:23:00,63.8,62.0,30.09,ESE,119,0.0,0.0,94,0.00,CLR,,0.00,WeatherDisplay:10.37,2013-01-13 04:23:00,
2013-01-12 23:28:00,63.8,62.0,30.09,ESE,117,0.0,0.0,94,0.00,CLR,,0.00,WeatherDisplay:10.37,2013-01-13 04:28:00,
2013-01-12 23:33:00,63.8,62.0,30.09,ESE,119,0.0,0.0,94,0.00,CLR,,0.00,WeatherDisplay:10.37,2013-01-13 04:33:00,
2013-01-12 23:38:00,64.0,62.2,30.09,ESE,117,0.0,0.0,94,0.00,CLR,,0.00,WeatherDisplay:10.37,2013-01-13 04:38:00,
2013-01-12 23:43:00,63.9,62.1,30.09,ESE,119,0.0,0.0,94,0.00,CLR,,0.00,WeatherDisplay:10.37,2013-01-13 04:43:00,
2013-01-12 23:48:00,63.9,62.1,30.09,ESE,118,0.0,0.0,94,0.00,CLR,,0.00,WeatherDisplay:10.37,2013-01-13 04:48:00,
2013-01-12 23:53:00,63.8,62.0,30.09,ESE,118,0.0,0.0,94,0.00,CLR,,0.00,WeatherDisplay:10.37,2013-01-13 04:53:00,
2013-01-12 23:58:00,63.7,61.9,30.09,ESE,118,0.0,0.0,94,0.00,CLR,,0.00,WeatherDisplay:10.37,2013-01-13 04:58:00,